Jacksonville, FL

7:20 PM EST on February 24, 2017 (GMT -0500)
Cecil

Weather History for KVQQ - March, 2012

Change the Weather History Date:

Sunday, March 4, 2012

  Actual Average (KNIP) Record (KNIP)
Temperature  
Mean Temperature 54 °F -  
Max Temperature 75 °F 69 °F 87 °F (1997)
Min Temperature 32 °F 51 °F 34 °F (2013)
Degree Days  
Heating Degree Days 12    
Growing Degree Days 4 (Base 50)    
Moisture  
Dew Point 43 °F    
Average Humidity 78    
Maximum Humidity 100    
Minimum Humidity 22    
Precipitation  
Precipitation 0.85 in - - ()
Sea Level Pressure  
Sea Level Pressure 29.92 in    
Wind  
Wind Speed 13 mph (NW)    
Max Wind Speed 30 mph    
Max Gust Speed 38 mph    
Visibility 8 miles    
Events Rain , Thunderstorm    
Averages and records for this station are not official NWS values.
T = Trace of Precipitation, MM = Missing Value Source: NWS Daily Summary

Daily Weather History Graph

Daily Weather History Graph

Search for Another Location

Airport or City:

Trip Planner

Search our weather history database for the weather conditions in past years. The results will help you decide how hot, cold, wet, or windy it might be!

Date:

Astronomy

Mar. 04, 2012 Rise Set
Actual Time 6:49 AM EST 6:28 PM EST
Civil Twilight 6:25 AM EST 6:52 PM EST
Nautical Twilight 5:57 AM EST 7:20 PM EST
Astronomical Twilight 5:30 AM EST 7:48 PM EST
Moon 2:53 PM EST (3/4) 3:54 AM EST (3/4)
Length of Visible Light 12h 27m
Length of Day
11h 39m
Waxing Gibbous, 83% of the Moon is Illuminated
Mar 4
Waxing Gibbous
Mar 8
Full
Mar 14
Last Quarter
Mar 22
New
Mar 30
First Quarter

Hourly Weather History & Observations

Time (EST) Temp. Windchill Dew Point Humidity Pressure Visibility Wind Dir Wind Speed Gust Speed Precip Events Conditions
12:15 AM 73.4 °F - 68.0 °F 83% 29.68 in 10.0 mi SSW 15.0 mph 20.7 mph N/A   Mostly Cloudy
12:35 AM 75.2 °F - 68.0 °F 78% 29.68 in 10.0 mi SSW 13.8 mph 25.3 mph N/A   Mostly Cloudy
12:55 AM 66.2 °F - 60.8 °F 83% 29.69 in 10.0 mi NNW 16.1 mph 25.3 mph N/A   Overcast
1:15 AM 62.6 °F - 59.0 °F 88% 29.69 in 10.0 mi North 9.2 mph - N/A   Mostly Cloudy
1:35 AM 59.0 °F - 59.0 °F 100% 29.68 in 10.0 mi NNW 10.4 mph - N/A Rain Light Rain
1:55 AM 59.0 °F - 59.0 °F 100% 29.70 in 10.0 mi WNW 16.1 mph - 0.01 in   Overcast
2:15 AM 59.0 °F - 59.0 °F 100% 29.69 in 6.0 mi NNW 9.2 mph - 0.01 in Rain Light Rain
2:35 AM 57.2 °F - 57.2 °F 100% 29.68 in 10.0 mi NNW 13.8 mph - 0.02 in Rain Light Rain
2:55 AM 57.2 °F - 55.4 °F 94% 29.68 in 5.0 mi NNW 16.1 mph 23.0 mph 0.05 in Rain Light Rain
3:15 AM 53.6 °F - 51.8 °F 94% 29.69 in 3.0 mi NW 17.3 mph 23.0 mph 0.09 in Rain Rain
3:35 AM 50.0 °F - 50.0 °F 100% 29.70 in 3.0 mi NNW 17.3 mph 25.3 mph 0.20 in Rain Rain
3:55 AM 50.0 °F - 48.2 °F 94% 29.72 in 5.0 mi NNW 17.3 mph 25.3 mph 0.21 in Rain Light Rain
4:15 AM 48.2 °F - 48.2 °F 100% 29.74 in 2.0 mi NNW 12.7 mph - 0.24 in Rain Heavy Rain
4:35 AM 48.2 °F - 48.2 °F 100% 29.75 in 2.5 mi NNW 12.7 mph 23.0 mph 0.32 in Rain , Thunderstorm Rain
4:55 AM 48.2 °F - 48.2 °F 100% 29.76 in 1.5 mi NNW 10.4 mph - 0.47 in Rain Rain
5:15 AM 48.2 °F - 48.2 °F 100% 29.77 in 8.0 mi NW 10.4 mph 16.1 mph N/A Rain Light Rain
5:35 AM 48.2 °F - 48.2 °F 100% 29.79 in 5.0 mi NW 13.8 mph 24.2 mph 0.05 in Rain Light Rain
5:55 AM 48.2 °F - 48.2 °F 100% 29.82 in 5.0 mi WNW 12.7 mph 26.5 mph 0.08 in Rain Light Rain
6:15 AM 48.2 °F - 46.4 °F 93% 29.86 in 4.0 mi WNW 17.3 mph 23.0 mph 0.03 in Rain Light Rain
6:50 AM 46.4 °F 41.9 °F 44.6 °F 93% 29.88 in 7.0 mi WNW 9.2 mph - N/A   Mostly Cloudy
7:50 AM 46.4 °F 42.9 °F 44.6 °F 93% 29.92 in 9.0 mi WNW 6.9 mph - N/A   Mostly Cloudy
8:50 AM 48.2 °F - 44.6 °F 87% 29.96 in 10.0 mi WNW 9.2 mph 18.4 mph N/A   Mostly Cloudy
9:50 AM 53.6 °F - 42.8 °F 67% 30.01 in 10.0 mi WNW 13.8 mph 24.2 mph N/A   Scattered Clouds
10:50 AM 57.2 °F - 35.6 °F 44% 30.03 in 10.0 mi WNW 24.2 mph - N/A   Clear
11:50 AM 59.0 °F - 32.0 °F 36% 30.04 in 10.0 mi WNW 16.1 mph 38.0 mph N/A   Clear
12:50 PM 60.8 °F - 26.6 °F 27% 30.04 in 10.0 mi West 29.9 mph 38.0 mph N/A   Clear
1:50 PM 62.6 °F - 23.0 °F 22% 30.02 in 10.0 mi West 18.4 mph 38.0 mph N/A   Clear
2:50 PM 62.6 °F - 23.0 °F 22% 30.01 in 10.0 mi WNW 20.7 mph 34.5 mph N/A   Clear
3:50 PM 62.6 °F - 23.0 °F 22% 30.01 in 10.0 mi WNW 16.1 mph 29.9 mph N/A   Clear
4:50 PM 60.8 °F - 23.0 °F 23% 30.04 in 10.0 mi West 16.1 mph 21.9 mph N/A   Clear
5:50 PM 59.0 °F - 24.8 °F 27% 30.08 in 10.0 mi West 11.5 mph 25.3 mph N/A   Clear
6:50 PM 53.6 °F - 26.6 °F 35% 30.10 in 10.0 mi West 5.8 mph - N/A   Clear
8:55 PM 37.4 °F - 32.0 °F 81% 30.19 in 10.0 mi Calm Calm - N/A   Clear
9:15 PM 37.4 °F - 32.0 °F 81% 30.20 in 10.0 mi Calm Calm - N/A   Clear
9:35 PM 35.6 °F - 32.0 °F 87% 30.21 in 10.0 mi Calm Calm - N/A   Clear
9:55 PM 35.6 °F - 32.0 °F 87% 30.21 in 10.0 mi Calm Calm - N/A   Clear
10:15 PM 35.6 °F - 32.0 °F 87% 30.22 in 10.0 mi Calm Calm - N/A   Clear
10:55 PM 33.8 °F - 32.0 °F 93% 30.23 in 10.0 mi Calm Calm - N/A   Clear
11:15 PM 32.0 °F - 32.0 °F 100% 30.23 in 10.0 mi Calm Calm - N/A   Clear
11:35 PM 32.0 °F - 32.0 °F 100% 30.23 in 10.0 mi Calm Calm - N/A   Clear